sat.trackr.live / text

‹ back to catalog

STARLINK-34418

NORAD 64461 · 2025-130Z

PAYLOAD ACTIVE UNKNOWN

§ Identity

Operator
Country
US
Launch date
2025-06-18
Launch site
AFETR
Launch vehicle
Mass (kg)
RCS (m²)

Purposes: comms

External: N2YO · Heavens-Above · Gunter

§ Orbital elements

Epoch: 2026-09-20T23:24:47.056032Z

Period
93.85 min
Inclination
53.1538°
Eccentricity
0.0002287
Mean motion
15.34407231 rev/d
Perigee alt
461.1 km
Apogee alt
464.2 km
Semi-major
6,840.8 km
B*
5.4262e-4
RAAN
259.2218°
Arg perigee
80.0000°
Mean anomaly
280.1260°
Rev number
7,063

§ Raw data

STARLINK-344181 64461U 25130Z   26263.97554463  .00018005  00000+0  54262-3 0  99992 64461  53.1538 259.2218 0002287  80.0000 280.1260 15.34407231 70639

JSON: /api/v1/satellites/64461 · /tle

For live sub-satellite position, see the globe view (requires WebGL).

§ Visibility from observer

Set your observer location to see the next 7 days of passes ≥ 10°. The values pass through the URL so the page stays shareable.

No JS? Fill the form by hand. The geolocation button needs JavaScript.